Missoula, MT

9:00 AM MDT on March 26, 2017 (GMT -0600)
Missoula International

Weather History for KMSO - December, 2013

Change the Weather History Date:

Monday, December 16, 2013

  Actual Average Record
Temperature  
Mean Temperature 37 °F 23 °F  
Max Temperature 47 °F 30 °F 57 °F (1941)
Min Temperature 26 °F 16 °F -26 °F (1964)
Degree Days  
Heating Degree Days 28 42  
Month to date heating degree days 774 646  
Since 1 July heating degree days 2629 2542  
Cooling Degree Days 0 0  
Month to date cooling degree days 0 0  
Year to date cooling degree days 579 332  
Moisture  
Dew Point 27 °F    
Average Humidity 59    
Maximum Humidity 72    
Minimum Humidity 45    
Precipitation  
Precipitation 0.00 in 0.04 in 0.59 in (1955)
Month to date precipitation 0.54 0.54  
Year to date precipitation 8.87 13.63  
Snow  
Snow 0.00 in - - ()
Month to date snowfall 6.9  
Year to date snowfall 36.1  
Since 1 July snowfall 8.7  
Snow Depth 2.00 in    
Sea Level Pressure  
Sea Level Pressure 30.36 in    
Wind  
Wind Speed 7 mph (WNW)    
Max Wind Speed 18 mph    
Max Gust Speed 23 mph    
Visibility 10 miles    
Events      
T = Trace of Precipitation, MM = Missing Value Source: NWS Daily Summary

Daily Weather History Graph

Daily Weather History Graph

Search for Another Location

Airport or City:

Trip Planner

Search our weather history database for the weather conditions in past years. The results will help you decide how hot, cold, wet, or windy it might be!

Date:

Astronomy

Dec. 16, 2013 Rise Set
Actual Time 8:16 AM MST 4:48 PM MST
Civil Twilight 7:40 AM MST 5:23 PM MST
Nautical Twilight 7:01 AM MST 6:02 PM MST
Astronomical Twilight 6:24 AM MST 6:39 PM MST
Moon 4:45 PM MST (12/16) 7:24 AM MST (12/16)
Length of Visible Light 9h 43m
Length of Day
8h 32m
Full, 100% of the Moon is Illuminated
Dec 16
Full
Dec 17
Full
Dec 25
Last Quarter
Jan 1
New
Jan 7
First Quarter

Hourly Weather History & Observations

Time (MST) Temp. Windchill Dew Point Humidity Pressure Visibility Wind Dir Wind Speed Gust Speed Precip Events Conditions
12:53 AM 41.0 °F 38.0 °F 32.0 °F 70% 30.31 in 10.0 mi East 4.6 mph - N/A   Overcast
1:53 AM 39.9 °F 37.8 °F 30.9 °F 70% 30.30 in 10.0 mi NE 3.5 mph - N/A   Overcast
2:53 AM 44.1 °F 41.5 °F 30.0 °F 58% 30.30 in 10.0 mi West 4.6 mph - N/A   Overcast
3:53 AM 44.1 °F - 28.9 °F 55% 30.31 in 10.0 mi Calm Calm - N/A   Overcast
4:53 AM 39.9 °F 37.8 °F 30.0 °F 68% 30.32 in 10.0 mi East 3.5 mph - N/A   Overcast
5:53 AM 39.9 °F 35.8 °F 28.0 °F 63% 30.33 in 10.0 mi SSW 5.8 mph - N/A   Overcast
6:53 AM 41.0 °F 36.4 °F 27.0 °F 57% 30.33 in 10.0 mi SW 6.9 mph - N/A   Scattered Clouds
7:53 AM 39.0 °F 31.4 °F 27.0 °F 62% 30.33 in 10.0 mi WSW 12.7 mph - N/A   Clear
8:53 AM 39.0 °F 32.8 °F 27.0 °F 62% 30.36 in 10.0 mi West 9.2 mph - N/A   Clear
9:53 AM 42.1 °F 35.2 °F 27.0 °F 55% 30.37 in 10.0 mi West 12.7 mph - N/A   Clear
10:53 AM 42.1 °F 36.6 °F 27.0 °F 55% 30.38 in 10.0 mi West 9.2 mph 23.0 mph N/A   Scattered Clouds
11:53 AM 44.1 °F 40.1 °F 26.1 °F 49% 30.37 in 10.0 mi WNW 6.9 mph - N/A   Clear
12:53 PM 46.0 °F 42.5 °F 26.1 °F 46% 30.35 in 10.0 mi NW 6.9 mph - N/A   Overcast
1:53 PM 45.0 °F 40.1 °F 28.0 °F 52% 30.34 in 10.0 mi NW 9.2 mph - N/A   Clear
2:53 PM 46.0 °F 41.0 °F 27.0 °F 47% 30.34 in 10.0 mi WNW 10.4 mph - N/A   Clear
3:53 PM 45.0 °F 40.6 °F 28.0 °F 52% 30.34 in 10.0 mi NNW 8.1 mph - N/A   Partly Cloudy
4:53 PM 43.0 °F 38.2 °F 27.0 °F 53% 30.37 in 10.0 mi NNW 8.1 mph - N/A   Partly Cloudy
5:53 PM 39.9 °F - 28.0 °F 63% 30.37 in 10.0 mi Calm Calm - N/A   Partly Cloudy
6:53 PM 39.0 °F 32.8 °F 27.0 °F 62% 30.37 in 10.0 mi North 9.2 mph - N/A   Clear
7:53 PM 35.1 °F 32.2 °F 26.1 °F 70% 30.40 in 10.0 mi West 3.5 mph - N/A   Clear
8:53 PM 35.1 °F 30.1 °F 25.0 °F 67% 30.41 in 10.0 mi NNW 5.8 mph - N/A   Clear
9:53 PM 32.0 °F 26.4 °F 24.1 °F 73% 30.42 in 10.0 mi North 5.8 mph - N/A   Clear
10:53 PM 32.0 °F 25.6 °F 24.1 °F 73% 30.42 in 10.0 mi NNW 6.9 mph - N/A   Clear
11:53 PM 28.9 °F 25.2 °F 23.0 °F 78% 30.42 in 10.0 mi SSE 3.5 mph - N/A   Clear